STARLINK-1720 (46675 NORAD) Tracking and Keplerian Element Data

This shows tracking and keplerian element data for the satellite.

Feedback or suggestion? Click here.




ElementValue
Catalog46675
NameSTARLINK-1720
Epoch Orbit776
Epoch Day338.83334491
Epoch Year2020
RAAN241.6223
Inclination53.0543
Eccentricity0.0001315
Argument of Perigee44.9332
Mean Anonmoly26.355
Mean Motion15.62804201
Decay Rate-0.00023468
L11 46675U 20073F 20338.83334491 -.00023468 00000-0 -25070-3 0 9993
L22 46675 53.0543 241.6223 0001315 44.9332 26.3550 15.62804201 7765

Live tracking and technical data element details for STARLINK-1720 (NORAD 46675). STARLINK-1720 can be tracked NOW for your location showing map with azimuth and elevation plus other details from your city location.

Track the satellite on the map from your city or location and see movement details for azimuth, elevation, latitude, longitude, range, height, and movement on the map or in text.







IsCatalogInMostPopularTable: catalog: 46675, numindb: 8
Update: records affected: 1



GetName: 46675 STARLINK-1720

Hit Count: updated at: Sun, 06 Dec 2020 00:27:35 GMT